Tracking 29969 objects as of 6-Dec-2024
HD Live streaming from Space Station
objects crossing your sky now

STARLINK-30300

Track STARLINK-30300 now!
10-day predictions
STARLINK-30300 is classified as:


NORAD ID: 57715
Int'l Code: 2023-129T
Perigee: 565.7 km
Apogee: 566.7 km
Inclination: 43.0 °
Period: 95.8 minutes
Semi major axis: 6937 km
RCS: Unknown
Launch date: August 27, 2023
Source: United States (US)
Launch site: AIR FORCE EASTERN TEST RANGE (AFETR)
Your satellite tracking list
Your tracking list is empty




NASA's NSSDC Master Catalog

Two Line Element Set (TLE):
1 57715U 23129T   24340.79213849 -.00002934  00000-0 -20222-3 0  9999
2 57715  42.9995  93.8718 0000776 219.8442 140.2343 15.02541283 71625
Source of the keplerian elements: AFSPC